Terminal Aerodrome Forecast
Issued by NWS

Home | Current Version | Previous Version | Graphics & Text | Print | Product List | Glossary On
Versions: 1 2 3 4 5 6 7 8 9 10 11 12 13 14 15 16 17 18 19 20 21 22 23 24 25 26 27 28 29 30 31 32 33 34 35 36 37 38 39 40 41 42 43 44 45 46 47 48 49 50
000
FTUS43 KLOT 300307 AAA
TAFGYY
TAF AMD
KGYY 300307Z 3003/3024 06012G18KT P6SM -SHRA OVC060
     FM300700 08016G25KT 3SM -SHRA SCT015 OVC030
      TEMPO 3008/3011 2SM TSRA BKN015 OVC030CB
     FM301200 08016G22KT 2SM -SHRA BR OVC007=

USA.gov is the U.S. government's official web portal to all federal, state and local government web resources and services.